Simultaneous Nadir Overpasses (SNOs) Predictions

Prediction of SNOs between NOAA-19 and NPP Satellite Orbit:

Table of predicted SNOs for the next 14.0 days since TLE Epoch: 6/27/2016
Index Date (NOAA-19) Time (NOAA-19) Lat,Lon (NOAA-19) SZA (NOAA-19 ) Date (NPP) Time (NPP) Lat,Lon (NPP) SZA (NPP ) Distance(km) Time Diff (sec)
1 07/03/2016 13:03:35 80.99, -69.01 62.03 07/03/2016 13:04:40 81.00, -69.11 62.01 1.99 65
2 07/03/2016 13:54:30 -80.99, 98.57 118.01 07/03/2016 13:55:24 -80.98, 98.56 118.04 1.04 54
3 07/03/2016 14:45:36 80.99, -94.13 61.99 07/03/2016 14:46:09 80.98, -94.17 61.97 1.08 33
4 07/03/2016 15:36:32 -80.99, 73.07 118.00 07/03/2016 15:36:54 -80.98, 73.14 118.03 1.50 22
5 07/03/2016 16:27:38 80.99,-119.63 61.99 07/03/2016 16:27:39 80.99,-119.58 61.98 1.06 1
6 07/03/2016
